Location: ??????
(38.0677°N, 22.9870°E)
Time: 12:59:25
(UTC+00:00)

Cosmos 1709 Rocket - Pass Details

Date: 23 May 2024
Orbit: 948 x 1000 km, 82.9° (Epoch: 12 June)

Event Time Altitude Azimuth Distance (km) Brightness Sun altitude
Exits shadow 00:05:03 48° 146° (SE) 1,265 4.3 -26.8°
Maximum altitude 00:06:36 63° 92° (E) 1,100 4.3 -26.6°
Drops below altitude 10° 00:12:51 10° 14° (NNE) 2,771 7.3 -26.0°
Sets 00:15:25 0° 11° (N) 3,727 8.2 -25.8°
